Tracking 31027 objects as of 19-Jul-2025
HD Live streaming from Space Station
objects crossing your sky now

STARLINK-2502

Track STARLINK-2502 now!
10-day predictions
STARLINK-2502 is classified as:


NORAD ID: 48327
Int'l Code: 2021-036BD
Perigee: 553.4 km
Apogee: 555.3 km
Inclination: 53.1 °
Period: 95.6 minutes
Semi major axis: 6925 km
RCS: Unknown
Launch date: April 29, 2021
Source: United States (US)
Launch site: AIR FORCE EASTERN TEST RANGE (AFETR)
Your satellite tracking list
STARLINK-3674
Track 1 satellite(s)




NASA's NSSDC Master Catalog

Two Line Element Set (TLE):
1 48327U 21036BD  25199.62062207 -.00000415  00000-0 -89760-5 0  9994
2 48327  53.0546  72.3984 0001383  93.1546 266.9601 15.06404044232752
Source of the keplerian elements: AFSPC